Flag for Poland Weather past 2 weeks in Jastrzębie Zdrój, Poland

Now
71 °F

Light rain. Overcast.


Feels Like: 71 °F
Forecast: 54 / 68 °F
Wind: 7 mph from Northwest

Location: Ostrava / Mosnov

Current Time: Jul 8, 2015 at 6:24:40 AM

Latest Report: Jul 8, 2015 at 5:00 AM


Visibility: 9 mi

Pressure: 29.77 "Hg

Humidity: 80%

Dew point: 64 °F

Location of Jastrzębie ZdrójLocation

Historic Weather in Jastrzębie Zdrój — Graph

°F

Jastrzębie Zdrój temperature yesterday

Maximum temperature yesterday: 90 °F (at 5:00 PM)
Minimum temperature yesterday: 61 °F (at 6:00 AM)
Average temperature yesterday: 78 °F

Past Weeks' High & Low Weather Summary

 TemperatureHumidityPressure
High91 °F (Jul 5, 3:00 PM)99% (Jun 29, 7:00 AM)30.36 "Hg (Jun 29, 7:00 AM)
Low47 °F (Jun 26, 6:00 AM)25% (Jul 4, 5:00 PM)29.65 "Hg (Jul 8, 4:00 AM)
Average67 °F64%30.11 "Hg
* Reported Jun 23 4:00 AM — Jul 8 4:00 AM, Jastrzębie Zdrój, Weather by CustomWeather, © 2015

Note: Actual official high and low records may vary slightly from our data, if they occured in-between our weather recording intervals... More about our weather records

Advertising

Jastrzębie Zdrój weather history for previous 24 hours

 ConditionsComfort  
Time TempWeatherWind HumidityBarometerVisibility
4:00 AM
Wed, Jul 8
77 °FPassing clouds.5 mph67%29.65 "Hg19 mi
3:00 AM82 °FClear.6 mph59%29.67 "Hg19 mi
2:00 AM82 °FClear.7 mph57%29.68 "Hg19 mi
1:00 AM80 °FClear.6 mph57%29.69 "Hg19 mi
12:00 AM84 °FClear.5 mph51%29.71 "Hg19 mi
11:00 PM
Tue, Jul 7
77 °FPassing clouds.2 mph64%29.76 "Hg19 mi
10:00 PM80 °FPassing clouds.N/A55%29.78 "Hg16 mi
9:00 PM83 °FPassing clouds.2 mph47%29.78 "Hg19 mi
8:00 PM87 °FScattered clouds.2 mph38%29.80 "Hg16 mi
7:00 PM90 °FPassing clouds.N/A34%29.81 "Hg19 mi
6:00 PM90 °FPassing clouds.3 mph33%29.84 "Hg28 mi
5:00 PM90 °FPassing clouds.3 mph31%29.86 "Hg28 mi
4:00 PM90 °FPassing clouds.5 mph30%29.88 "Hg28 mi
3:00 PM89 °FPassing clouds.N/A32%29.90 "Hg28 mi
2:00 PM87 °FPassing clouds.N/A32%29.94 "Hg28 mi
1:00 PM86 °FPassing clouds.N/A35%29.96 "Hg28 mi
12:00 PM83 °FPassing clouds.N/A30%29.99 "Hg25 mi
11:00 AM81 °FPassing clouds.N/A44%30.01 "Hg19 mi
10:00 AM77 °FSunny.N/A54%30.03 "Hg19 mi
9:00 AM74 °FSunny.N/A60%30.05 "Hg19 mi
8:00 AM69 °FSunny.N/A67%30.07 "Hg22 mi
7:00 AM65 °FSunny.2 mph78%30.09 "Hg19 mi
6:00 AM61 °FSunny.1 mph87%30.09 "Hg19 mi
Weather by CustomWeather, © 2015

See weather overviewHow to use our weather pages